Find Local Weather

World > North America > United States > Virginia

Alexandria, Virginia Regional Weather

Lat: 38.82N, Lon: 77.09W
Wx Zone: VAZ054
Feedback
Expires:201812120700;;665192
ASUS41 KLWX 120610
RWRLWX

REGIONAL WEATHER ROUNDUP
NATIONAL WEATHER SERVICE BALTIMORE MD/WASHINGTON DC
100 AM EST WED DEC 12 2018

Note: "FAIR" indicates few or no clouds below 12,000 feet
with no significant weather and/or obstructions to visibility.
 TC=TEMPERATURE CELSIUS

 * =Non NWS site. Station does not report precipitation (e.g. rain,
    snow, etc.), thunder, or fog.


DCZ001-MDZ009-015-VAZ040>042-051-053>054-120700-
WASHINGTON METRO
  
CITY           SKY/WX    TMP DP  RH WIND       PRES   REMARKS
WASHINGTON NAT MOCLDY    35  27  72 S6        30.08S WCI  30          
DULLES         MOCLDY    30  22  72 CALM      30.06S                  
ANDREWS AFB    CLOUDY    28  23  81 CALM      30.05F                  
FT BELVOIR     FAIR      24  21  87 CALM      30.08S                  
QUANTICO       FAIR      27  25  92 NW7       30.09S WCI  19          
COLLEGE PARK*  CLOUDY    29  24  81 CALM      30.06S                  
LEESBURG*      FAIR      32  23  69 W5        30.06S WCI  27          
MANASSAS*      FAIR      19  16  88 CALM      30.08S                  
GAITHERSBURG*  CLOUDY    32  21  64 CALM      30.05S                  

$$


SKY/WX - Weather  TMP - Temperature  DP - Dew Point  RH - Relative Humidity
WIND - Wind Direction/Speed PRES - Barometric Pressure